Location: Lynch Observatory
(39.9540°N, 75.1861°W)
Time: 22:40:53
(UTC-05:00)

Hubble Space Telescope - Visible Passes

Search period start: 30 November 2023 00:00
Search period end: 10 December 2023 00:00
Orbit: 519 x 523 km, 28.5° (Epoch: 30 November)

Date Brightness Start Highest point End Pass type
(mag) Time Alt. Az. Time Alt. Az. Time Alt. Az.
30 Nov 3.3 18:18:03 10° SW 18:20:09 14° S 18:22:14 10° SSE visible
01 Dec 3.3 18:01:50 10° SW 18:03:41 13° S 18:05:34 10° SSE visible
02 Dec 3.4 17:45:39 10° SW 17:47:14 12° SSW 17:48:48 10° S visible
03 Dec 3.6 17:29:37 10° SSW 17:30:44 11° SSW 17:31:51 10° S visible
